Home   Weather   Libreville   Past weeks
Flag for Gabon

Past Weather in Libreville, Gabon — Yesterday and Last 2 Weeks

Now
81 °F

Thunderstorms. Scattered clouds.


Feels Like: 87 °F
Forecast: 81 / 76 °F
Wind: 7 mph from Southwest

Location: Libreville Airport

Current Time: Oct 18, 2019 at 3:33:27 pm

Latest Report: Oct 18, 2019 at 3:00 pm


Visibility: 5 mi

Pressure: 29.80 "Hg

Humidity: 89%

Dew Point: 77 °F

Location of LibrevilleLocation

Past Weather in Libreville — Graph

°F

Libreville Temperature Yesterday

Maximum temperature yesterday: 84 °F (at 1:30 pm)
Minimum temperature yesterday: 73 °F (at 6:30 am)
Average temperature yesterday: 79 °F

High & Low Weather Summary for the Past Weeks

 TemperatureHumidityPressure
High86 °F (Oct 8, 12:00 pm)100% (Oct 5, 3:00 am)29.95 "Hg (Oct 5, 3:00 am)
Low73 °F (Oct 7, 4:00 pm)59% (Oct 8, 12:00 pm)29.74 "Hg (Oct 10, 4:00 pm)
Average79 °F86%29.85 "Hg
* Reported Oct 3 2:00 pm — Oct 18 2:00 pm, Libreville. Weather by CustomWeather, © 2019

Note: Actual official high and low records may vary slightly from our data, if they occured in-between our weather recording intervals... More about our weather records

Advertising

Libreville Weather History for the Previous 24 Hours

Scroll right to see more
 ConditionsComfort  
Time TempWeatherWind HumidityBarometerVisibility
2:00 pm
Fri, Oct 18
82 °FScattered clouds.9 mph79%29.83 "Hg5 mi
1:30 pm84 °FScattered clouds.10 mph79%29.83 "HgN/A
1:00 pm84 °FScattered clouds.10 mph79%29.86 "HgN/A
12:30 pm84 °FScattered clouds.9 mph74%29.86 "HgN/A
12:00 pm84 °FBroken clouds.9 mph70%29.89 "HgN/A
11:30 am82 °FBroken clouds.7 mph79%29.92 "HgN/A
11:00 am82 °FBroken clouds.8 mph79%29.92 "HgN/A
10:30 am82 °FScattered clouds.6 mph84%29.92 "HgN/A
10:00 am84 °FScattered clouds.5 mph79%29.92 "HgN/A
9:30 am82 °FScattered clouds.5 mph79%29.92 "HgN/A
9:00 am84 °FScattered clouds.2 mph74%29.92 "HgN/A
8:30 am81 °FScattered clouds.5 mph89%29.92 "HgN/A
8:00 am79 °FScattered clouds.5 mph94%29.92 "HgN/A
7:30 am77 °FScattered clouds.3 mph94%29.89 "HgN/A
7:00 am77 °FScattered clouds.2 mph94%29.89 "HgN/A
6:30 am75 °FPartly sunny.No wind94%29.86 "HgN/A
6:00 am75 °FPassing clouds.2 mph94%29.86 "HgN/A
5:30 am75 °FPassing clouds.2 mph94%29.86 "Hg5 mi
5:00 am75 °FLight rain. Passing clouds.5 mph100%29.86 "Hg4 mi
4:30 am75 °FLight rain. Passing clouds.7 mph100%29.86 "Hg4 mi
4:00 am77 °FPassing clouds.3 mph94%29.86 "HgN/A
3:30 am77 °FPassing clouds.2 mph94%29.86 "HgN/A
3:00 am77 °FPassing clouds.2 mph94%29.86 "HgN/A
2:30 am77 °FPassing clouds.5 mph94%29.86 "HgN/A
2:00 am77 °FPassing clouds.3 mph94%29.89 "HgN/A
1:30 am79 °FRain. Passing clouds.2 mph84%29.89 "HgN/A
1:00 am79 °FPassing clouds.3 mph84%29.89 "HgN/A
12:30 am79 °FPassing clouds.6 mph84%29.92 "HgN/A
12:00 am79 °FPartly cloudy.8 mph84%29.92 "HgN/A
11:30 pm
Thu, Oct 17
77 °FPartly cloudy.8 mph94%29.92 "HgN/A
11:00 pm77 °FPartly cloudy.10 mph94%29.92 "HgN/A
10:30 pm79 °FPassing clouds.12 mph89%29.92 "HgN/A
10:00 pm79 °FPassing clouds.7 mph89%29.92 "HgN/A
9:30 pm81 °FPassing clouds.8 mph84%29.92 "HgN/A
9:00 pm81 °FPassing clouds.8 mph84%29.92 "HgN/A
8:30 pm81 °FThunderstorms. Passing clouds.7 mph84%29.89 "HgN/A
8:00 pm81 °FThunderstorms. Passing clouds.7 mph79%29.89 "HgN/A
7:30 pm81 °FThunderstorms. Passing clouds.6 mph84%29.86 "HgN/A
7:00 pm81 °FPassing clouds.6 mph79%29.86 "HgN/A
6:30 pm79 °FPassing clouds.6 mph84%29.83 "HgN/A
6:00 pm81 °FPassing clouds.6 mph79%29.83 "HgN/A
5:30 pm82 °FPassing clouds.7 mph74%29.80 "HgN/A
3:30 pm82 °FScattered clouds.8 mph79%29.83 "HgN/A
3:00 pm84 °FScattered clouds.8 mph74%29.83 "HgN/A
Weather by CustomWeather, © 2019

See weather overview